sat.trackr.live / text

‹ back to catalog

ONEWEB-0299

NORAD 49088 · 2021-075P

PAYLOAD ACTIVE UNKNOWN

§ Identity

Operator
Country
UK
Launch date
2021-08-21
Launch site
TYMSC
Launch vehicle
Mass (kg)
RCS (m²)

Purposes: comms

External: N2YO · Heavens-Above · Gunter

§ Orbital elements

Epoch: 2026-09-09T18:52:37.748064Z

Period
109.29 min
Inclination
87.9212°
Eccentricity
0.0001835
Mean motion
13.17649017 rev/d
Perigee alt
1,192.3 km
Apogee alt
1,195.1 km
Semi-major
7,571.9 km
B*
1.0962e-4
RAAN
349.0522°
Arg perigee
106.7011°
Mean anomaly
253.4323°
Rev number
24,474

§ Raw data

ONEWEB-02991 49088U 21075P   26252.78654801  .00000055  00000+0  10962-3 0  99902 49088  87.9212 349.0522 0001835 106.7011 253.4323 13.17649017244740

JSON: /api/v1/satellites/49088 · /tle

For live sub-satellite position, see the globe view (requires WebGL).

§ Visibility from observer

Set your observer location to see the next 7 days of passes ≥ 10°. The values pass through the URL so the page stays shareable.

No JS? Fill the form by hand. The geolocation button needs JavaScript.